User: anonymous   Login
Location: Unspecified
(0.0000°N, 0.0000°E)
Time: 02:06:07
(UTC+00:00)
Language:

STARLINK-4050 - Orbit

View from above orbital plane
View from above orbital plane
View from above satellite
View from above satellite

Ground track
Ground track

The orbit is defined by the following mean orbital elements,

1 53274U          26145.54534894 +.00000000 +00000-0 -11292-3 0 00003
2 53274  53.2107 199.1001 0001336  73.3194 286.7945 15.08842617    05
Epoch (UTC): 25 May 2026 13:05:18
Eccentricity: 0.0001336
inclination: 53.2107°
perigee height: 539 km
apogee height: 541 km
right ascension of ascending node: 199.1001°
argument of perigee: 73.3194°
revolutions per day: 15.08842617
mean anomaly at epoch: 286.7945°

The dashed part of the orbit path shows where the satellite is in the earth's shadow,  

DLR